DEMCF EDAZ-EDAY

Flight info

Callsign DEMCF
Flight time 0h 52m
Altitude 7000
Route FWE DCT EDON
Aircraft S22T/L-SDGRY/S

Departure

Time 2026-05-05 19:16
Airport Schönhagen Airfield (EDAZ)

Arrival

Time 2026-05-05 20:09
Airport Strausberg Airfield (EDAY)
Time Latitude Longitude Altitude Speed Heading
2026-05-05 19:09 52.20409 13.15512 137 ft 0 kts 165°
2026-05-05 19:14 52.20405 13.15514 137 ft 2 kts 170°
2026-05-05 19:14 52.20390 13.15481 137 ft 2 kts 257°
2026-05-05 19:14 52.20389 13.15478 137 ft 1 kts 257°
2026-05-05 19:15 52.20382 13.15428 137 ft 7 kts 256°
2026-05-05 19:15 52.20346 13.15386 137 ft 3 kts 131°
2026-05-05 19:15 52.20335 13.15408 136 ft 9 kts 126°
2026-05-05 19:15 52.20312 13.15501 135 ft 6 kts 73°
2026-05-05 19:16 52.20357 13.15786 134 ft 62 kts 76°
2026-05-05 19:16 52.20511 13.16723 286 ft 95 kts 73°
2026-05-05 19:16 52.20700 13.17729 640 ft 98 kts 73°
2026-05-05 19:16 52.20881 13.18830 960 ft 104 kts 78°
2026-05-05 19:17 52.20842 13.20048 1105 ft 121 kts 113°
2026-05-05 19:17 52.20227 13.20992 1312 ft 126 kts 157°
2026-05-05 19:17 52.19332 13.21418 1406 ft 139 kts 167°
2026-05-05 19:17 52.18397 13.21163 1563 ft 137 kts 215°
2026-05-05 19:18 52.17923 13.19857 1615 ft 143 kts 252°
2026-05-05 19:18 52.17647 13.18216 1418 ft 154 kts 256°
2026-05-05 19:18 52.17413 13.16494 1266 ft 158 kts 258°
2026-05-05 19:18 52.17199 13.14725 1106 ft 152 kts 260°
2026-05-05 19:19 52.17085 13.13124 1026 ft 134 kts 266°
2026-05-05 19:19 52.17220 13.11718 998 ft 121 kts 302°
2026-05-05 19:19 52.17911 13.11058 904 ft 119 kts 348°
2026-05-05 19:19 52.18723 13.10906 813 ft 117 kts 356°
2026-05-05 19:20 52.19465 13.11033 873 ft 101 kts 26°
2026-05-05 19:20 52.19859 13.11948 729 ft 110 kts 81°
2026-05-05 19:20 52.19959 13.13149 474 ft 103 kts 75°
2026-05-05 19:20 52.20119 13.14226 299 ft 95 kts 77°
2026-05-05 19:21 52.20266 13.15187 153 ft 79 kts 76°
2026-05-05 19:21 52.20375 13.15907 135 ft 43 kts 79°
2026-05-05 19:21 52.20390 13.16021 136 ft 0 kts 73°
2026-05-05 19:22 52.20390 13.16022 136 ft 0 kts 73°
2026-05-05 19:22 52.20461 13.16474 139 ft 79 kts 77°
2026-05-05 19:22 52.20612 13.17456 397 ft 94 kts 75°
2026-05-05 19:23 52.20737 13.18526 746 ft 97 kts 95°
2026-05-05 19:23 52.20294 13.19371 983 ft 110 kts 162°
2026-05-05 19:23 52.19511 13.19576 1196 ft 123 kts 169°
2026-05-05 19:23 52.18619 13.19923 1425 ft 136 kts 162°
2026-05-05 19:24 52.17686 13.20486 1610 ft 148 kts 155°
2026-05-05 19:24 52.16772 13.21224 1963 ft 145 kts 150°
2026-05-05 19:24 52.15896 13.22047 2246 ft 148 kts 149°
2026-05-05 19:24 52.15068 13.23070 2475 ft 153 kts 127°
2026-05-05 19:25 52.14630 13.24620 2738 ft 154 kts 105°
2026-05-05 19:25 52.14427 13.26335 2986 ft 156 kts 94°
2026-05-05 19:25 52.14389 13.28182 3011 ft 170 kts 91°
2026-05-05 19:25 52.14231 13.30141 3012 ft 179 kts 98°
2026-05-05 19:26 52.13965 13.32146 3009 ft 184 kts 108°
2026-05-05 19:26 52.13598 13.34153 3008 ft 187 kts 99°
2026-05-05 19:26 52.13401 13.36251 3008 ft 189 kts 98°
2026-05-05 19:26 52.13252 13.38334 3005 ft 180 kts 96°
2026-05-05 19:27 52.13088 13.40316 2997 ft 174 kts 98°
2026-05-05 19:27 52.12898 13.42224 2991 ft 173 kts 99°
2026-05-05 19:27 52.12688 13.44144 2991 ft 173 kts 100°
2026-05-05 19:27 52.12478 13.46070 2990 ft 173 kts 95°
2026-05-05 19:28 52.12550 13.48020 2995 ft 173 kts 83°
2026-05-05 19:28 52.12691 13.49972 2994 ft 174 kts 83°
2026-05-05 19:28 52.12824 13.51928 2995 ft 174 kts 83°
2026-05-05 19:28 52.12954 13.53883 2995 ft 174 kts 83°
2026-05-05 19:29 52.13083 13.55838 2996 ft 174 kts 84°
2026-05-05 19:29 52.13211 13.57795 2996 ft 174 kts 84°
2026-05-05 19:29 52.13339 13.59750 2995 ft 174 kts 84°
2026-05-05 19:29 52.13463 13.61678 2997 ft 174 kts 84°
2026-05-05 19:30 52.13590 13.63638 2996 ft 174 kts 84°
2026-05-05 19:30 52.13718 13.65597 2995 ft 174 kts 83°
2026-05-05 19:30 52.13854 13.67553 2995 ft 174 kts 83°
2026-05-05 19:30 52.13985 13.69514 2995 ft 174 kts 83°
2026-05-05 19:31 52.14112 13.71478 2994 ft 174 kts 84°
2026-05-05 19:31 52.14231 13.73440 2994 ft 174 kts 84°
2026-05-05 19:31 52.14351 13.75363 3167 ft 168 kts 84°
2026-05-05 19:31 52.14469 13.77227 3375 ft 163 kts 84°
2026-05-05 19:32 52.14585 13.79046 3592 ft 160 kts 84°
2026-05-05 19:32 52.14698 13.80824 3833 ft 160 kts 84°
2026-05-05 19:32 52.14812 13.82634 4081 ft 161 kts 84°
2026-05-05 19:32 52.14928 13.84453 4330 ft 162 kts 83°
2026-05-05 19:33 52.15045 13.86296 4495 ft 168 kts 84°
2026-05-05 19:33 52.15161 13.88191 4498 ft 168 kts 84°
2026-05-05 19:33 52.15277 13.90076 4498 ft 167 kts 84°
2026-05-05 19:33 52.15397 13.91979 4502 ft 170 kts 84°
2026-05-05 19:34 52.15518 13.93909 4504 ft 172 kts 84°
2026-05-05 19:34 52.15640 13.95829 4507 ft 173 kts 84°
2026-05-05 19:34 52.15763 13.97784 4510 ft 174 kts 84°
2026-05-05 19:35 52.16011 14.01715 4509 ft 175 kts 84°
2026-05-05 19:35 52.16136 14.03689 4508 ft 175 kts 84°
2026-05-05 19:35 52.16261 14.05663 4508 ft 175 kts 84°
2026-05-05 19:35 52.16385 14.07637 4508 ft 175 kts 84°
2026-05-05 19:36 52.16510 14.09609 4508 ft 175 kts 84°
2026-05-05 19:36 52.16637 14.11585 4509 ft 175 kts 83°
2026-05-05 19:36 52.16761 14.13536 4507 ft 176 kts 84°
2026-05-05 19:36 52.16886 14.15513 4506 ft 176 kts 84°
2026-05-05 19:37 52.17011 14.17493 4506 ft 176 kts 84°
2026-05-05 19:37 52.17135 14.19470 4505 ft 176 kts 84°
2026-05-05 19:37 52.17260 14.21460 4421 ft 180 kts 84°
2026-05-05 19:37 52.17384 14.23493 4217 ft 181 kts 84°
2026-05-05 19:38 52.17508 14.25542 3970 ft 183 kts 84°
2026-05-05 19:38 52.17638 14.27604 3711 ft 184 kts 84°
2026-05-05 19:38 52.17764 14.29683 3441 ft 185 kts 84°
2026-05-05 19:38 52.17892 14.31738 3172 ft 185 kts 84°
2026-05-05 19:39 52.18018 14.33792 2895 ft 176 kts 84°
2026-05-05 19:39 52.18132 14.35711 2611 ft 165 kts 84°
2026-05-05 19:39 52.18247 14.37537 2323 ft 159 kts 84°
2026-05-05 19:39 52.18360 14.39300 2043 ft 154 kts 84°
2026-05-05 19:40 52.18485 14.41023 1751 ft 152 kts 83°
2026-05-05 19:40 52.18543 14.42725 1507 ft 147 kts 88°
2026-05-05 19:40 52.18589 14.44327 1493 ft 140 kts 86°
2026-05-05 19:40 52.18666 14.45896 1492 ft 138 kts 84°
2026-05-05 19:41 52.18828 14.47414 1492 ft 138 kts 74°
2026-05-05 19:41 52.19089 14.48882 1528 ft 127 kts 73°
2026-05-05 19:41 52.19380 14.50201 1465 ft 121 kts 66°
2026-05-05 19:41 52.19747 14.51427 1332 ft 123 kts 59°
2026-05-05 19:42 52.20183 14.52655 1139 ft 128 kts 62°
2026-05-05 19:42 52.20533 14.54023 896 ft 133 kts 74°
2026-05-05 19:42 52.20602 14.55383 681 ft 108 kts 103°
2026-05-05 19:42 52.20313 14.56433 428 ft 96 kts 117°
2026-05-05 19:43 52.20062 14.57365 254 ft 86 kts 113°
2026-05-05 19:43 52.19834 14.58169 153 ft 70 kts 110°
2026-05-05 19:43 52.19712 14.58621 152 ft 4 kts 111°
2026-05-05 19:43 52.19712 14.58622 152 ft 0 kts 110°
2026-05-05 19:44 52.19670 14.58782 151 ft 52 kts 116°
2026-05-05 19:44 52.19453 14.59608 287 ft 93 kts 110°
2026-05-05 19:44 52.19238 14.60684 558 ft 106 kts 105°
2026-05-05 19:45 52.19180 14.62007 756 ft 126 kts 65°
2026-05-05 19:45 52.19946 14.62307 888 ft 145 kts 314°
2026-05-05 19:45 52.20496 14.60950 1215 ft 145 kts 307°
2026-05-05 19:45 52.21121 14.59652 1456 ft 150 kts 302°
2026-05-05 19:46 52.21574 14.58095 1685 ft 154 kts 290°
2026-05-05 19:46 52.21981 14.56505 2017 ft 150 kts 293°
2026-05-05 19:46 52.22374 14.54954 2352 ft 149 kts 289°
2026-05-05 19:46 52.22709 14.53327 2594 ft 152 kts 291°
2026-05-05 19:47 52.23212 14.51825 2909 ft 152 kts 305°
2026-05-05 19:47 52.23909 14.50493 3119 ft 158 kts 314°
2026-05-05 19:47 52.24707 14.49234 3360 ft 159 kts 316°
2026-05-05 19:47 52.25488 14.47986 3646 ft 159 kts 316°
2026-05-05 19:48 52.26312 14.46730 3821 ft 163 kts 317°
2026-05-05 19:48 52.27179 14.45571 4129 ft 160 kts 322°
2026-05-05 19:48 52.28074 14.44522 4348 ft 162 kts 324°
2026-05-05 19:48 52.29036 14.43526 4576 ft 164 kts 329°
2026-05-05 19:49 52.30022 14.42558 4779 ft 167 kts 329°
2026-05-05 19:49 52.30704 14.41971 4916 ft 168 kts 334°
2026-05-05 19:49 52.32136 14.40994 5250 ft 166 kts 335°
2026-05-05 19:49 52.33132 14.40006 5438 ft 170 kts 323°
2026-05-05 19:50 52.34084 14.38901 5729 ft 166 kts 324°
2026-05-05 19:50 52.35073 14.37908 5930 ft 169 kts 329°
2026-05-05 19:50 52.36079 14.36922 6119 ft 171 kts 324°
2026-05-05 19:50 52.37015 14.35736 6376 ft 169 kts 320°
2026-05-05 19:51 52.37970 14.34475 6321 ft 185 kts 329°
2026-05-05 19:51 52.39156 14.33624 6394 ft 187 kts 335°
2026-05-05 19:51 52.40335 14.32715 6481 ft 188 kts 335°
2026-05-05 19:51 52.41533 14.31811 6500 ft 192 kts 334°
2026-05-05 19:52 52.42736 14.30831 6506 ft 193 kts 333°
2026-05-05 19:52 52.43922 14.29881 6505 ft 187 kts 334°
2026-05-05 19:52 52.45075 14.28990 6501 ft 184 kts 335°
2026-05-05 19:52 52.46235 14.28118 6496 ft 182 kts 336°
2026-05-05 19:53 52.47475 14.27852 6491 ft 181 kts
2026-05-05 19:53 52.48726 14.28060 6490 ft 180 kts
2026-05-05 19:53 52.49972 14.28267 6492 ft 180 kts
2026-05-05 19:53 52.51217 14.28478 6491 ft 180 kts
2026-05-05 19:54 52.52458 14.28692 6490 ft 179 kts
2026-05-05 19:54 52.53697 14.28928 6487 ft 179 kts 11°
2026-05-05 19:54 52.54842 14.29709 6493 ft 179 kts 17°
2026-05-05 19:54 52.56056 14.29678 6353 ft 181 kts 339°
2026-05-05 19:55 52.56975 14.28322 6155 ft 182 kts 297°
2026-05-05 19:55 52.57122 14.26291 5910 ft 184 kts 256°
2026-05-05 19:55 52.56415 14.24585 5664 ft 185 kts 215°
2026-05-05 19:55 52.55197 14.24044 5417 ft 186 kts 175°
2026-05-05 19:56 52.54054 14.24932 5169 ft 186 kts 134°
2026-05-05 19:56 52.53539 14.26826 4921 ft 185 kts 94°
2026-05-05 19:56 52.53897 14.28809 4673 ft 185 kts 53°
2026-05-05 19:56 52.54955 14.29930 4424 ft 185 kts 12°
2026-05-05 19:57 52.56187 14.29677 4173 ft 184 kts 333°
2026-05-05 19:57 52.57046 14.28161 3876 ft 186 kts 293°
2026-05-05 19:57 52.57110 14.26078 3575 ft 186 kts 253°
2026-05-05 19:57 52.56342 14.24414 3275 ft 187 kts 213°
2026-05-05 19:58 52.55102 14.23947 2974 ft 186 kts 173°
2026-05-05 19:58 52.53970 14.24892 2673 ft 186 kts 133°
2026-05-05 19:58 52.53479 14.26805 2371 ft 185 kts 92°
2026-05-05 19:58 52.53862 14.28760 2127 ft 180 kts 51°
2026-05-05 19:59 52.54877 14.29756 1918 ft 173 kts
2026-05-05 19:59 52.56057 14.29782 1700 ft 167 kts 358°
2026-05-05 19:59 52.57152 14.29735 1511 ft 148 kts 359°
2026-05-05 19:59 52.58116 14.29688 1436 ft 133 kts 358°
2026-05-05 20:00 52.59028 14.29642 1250 ft 132 kts 358°
2026-05-05 20:00 52.59938 14.29547 1088 ft 129 kts 354°
2026-05-05 20:00 52.60817 14.29391 961 ft 126 kts 351°
2026-05-05 20:00 52.61591 14.28982 791 ft 108 kts 328°
2026-05-05 20:01 52.61718 14.27963 536 ft 104 kts 238°
2026-05-05 20:01 52.61463 14.26928 327 ft 95 kts 266°
2026-05-05 20:01 52.61391 14.25897 108 ft 88 kts 263°
2026-05-05 20:01 52.61331 14.25007 43 ft 65 kts 264°
2026-05-05 20:02 52.61305 14.24578 39 ft 8 kts 264°
2026-05-05 20:02 52.61304 14.24489 39 ft 9 kts 266°
2026-05-05 20:02 52.61291 14.24129 40 ft 68 kts 265°
2026-05-05 20:02 52.61230 14.23099 198 ft 100 kts 264°
2026-05-05 20:03 52.61184 14.21943 543 ft 104 kts 266°
2026-05-05 20:03 52.61156 14.20742 888 ft 106 kts 267°
2026-05-05 20:03 52.61114 14.19482 1127 ft 121 kts 264°
2026-05-05 20:03 52.61042 14.18067 1472 ft 127 kts 268°
2026-05-05 20:04 52.61070 14.16607 1864 ft 129 kts 271°
2026-05-05 20:04 52.61225 14.15135 2219 ft 133 kts 287°
2026-05-05 20:04 52.61628 14.13685 2432 ft 146 kts 298°
2026-05-05 20:04 52.62204 14.12318 2527 ft 150 kts 307°
2026-05-05 20:05 52.62790 14.10863 2560 ft 155 kts 301°
2026-05-05 20:05 52.63360 14.09352 2676 ft 155 kts 302°
2026-05-05 20:05 52.63972 14.07856 2653 ft 164 kts 306°
2026-05-05 20:05 52.64607 14.06302 2743 ft 162 kts 292°
2026-05-05 20:06 52.64667 14.04494 2744 ft 167 kts 257°
2026-05-05 20:06 52.64148 14.02742 2536 ft 176 kts 232°
2026-05-05 20:06 52.63277 14.01244 2079 ft 182 kts 225°
2026-05-05 20:06 52.62413 13.99779 1802 ft 176 kts 228°
2026-05-05 20:07 52.61606 13.98305 1385 ft 171 kts 226°
2026-05-05 20:07 52.60836 13.96931 1182 ft 147 kts 229°
2026-05-05 20:07 52.60253 13.95800 921 ft 111 kts 230°
2026-05-05 20:07 52.59793 13.94926 714 ft 94 kts 226°
2026-05-05 20:08 52.59359 13.94192 545 ft 87 kts 228°
2026-05-05 20:08 52.58988 13.93490 503 ft 78 kts 229°
2026-05-05 20:08 52.58632 13.92806 437 ft 80 kts 229°
2026-05-05 20:08 52.58262 13.92089 303 ft 80 kts 230°
2026-05-05 20:09 52.57955 13.91510 265 ft 43 kts 229°
2026-05-05 20:09 52.57937 13.91346 263 ft 4 kts 334°
2026-05-05 20:09 52.58003 13.91327 263 ft 19 kts 353°
2026-05-05 20:09 52.58172 13.91289 263 ft 26 kts 350°
2026-05-05 20:10 52.58351 13.91249 264 ft 26 kts 352°
2026-05-05 20:10 52.58481 13.91273 264 ft 14 kts 90°
2026-05-05 20:10 52.58524 13.91361 264 ft 9 kts 334°
2026-05-05 20:10 52.58532 13.91355 264 ft 0 kts 338°